Regional Weather Roundup
Issued by NWS State College, PA

Home | Current Version | Previous Version | Text Only | Print | Product List | Glossary On
Versions: 1 2 3 4 5 6 7 8 9 10 11 12 13 14 15 16 17 18 19 20 21 22 23 24 25 26 27 28 29 30 31 32 33 34 35 36 37 38 39 40 41 42 43 44 45 46 47 48 49 50
000
ASUS41 KCTP 301010
RWRCTP

REGIONAL WEATHER ROUNDUP
NATIONAL WEATHER SERVICE STATE COLLEGE PA
600 AM EDT FRI SEP 30 2016

Note: "fair" indicates few or no clouds below 12,000 feet with no
significant weather and/or obstructions to visibility.

* = STATION THAT DOES NOT REPORT PRECIPITATION /E.G. RAIN...SNOW...ETC/
    THUNDER OR FOG.

PAZ002>004-007>009-013>016-020>023-029>032-301100-
WESTERN PENNSYLVANIA

CITY           SKY/WX    TMP DP  RH WIND       PRES   REMARKS
ERIE           LGT RAIN  59  57  93 NE6       30.23S
MEADVILLE      CLOUDY    55  53  93 CALM      30.23S
FRANKLIN*        N/A     54  50  87 E6        30.23R
NEW CASTLE     LGT RAIN  56  56 100 E7        30.21S
BEAVER COUNTY  NOT AVBL
BUTLER*        CLOUDY    55  52  88 NE7       30.22S
PITTSBURGH INT CLOUDY    57  57 100 NE8       30.18R
PITTSBURGH     CLOUDY    57  53  86 VRB6      30.16S
INDIANA*       CLOUDY    55  55 100 E10G17    30.21S
LATROBE        CLOUDY    57  55  94 CALM      30.17S
WASHINGTON CO* CLOUDY    57  54  88 NE10      30.15S
$$

PAZ004>006-010>012-017>019-024>028-033>037-041-042-045-046-049>053-301100-
CENTRAL PENNSYLVANIA

CITY           SKY/WX    TMP DP  RH WIND       PRES   REMARKS
BRADFORD       CLOUDY    52  52 100 E9        30.26S
DUBOIS         CLOUDY    53  51  93 E10       30.22S
CLEARFIELD     LGT RAIN  53  53 100 E9        30.25R
JOHNSTOWN      CLOUDY    53  53 100 E9G18     30.18S
ALTOONA        RAIN      53  53 100 NE7       30.23S FOG
STATE COLLEGE  RAIN      54  52  94 NE7       30.26S
WILLIAMSPORT   LGT RAIN  54  52  93 E9        30.28R
SELINSGROVE    RAIN      54  54 100 NE6       30.27F FOG
FT INDIANTOWN  LGT RAIN  54  54 100 VRB6      30.23F
CAPITAL CITY   HVY RAIN  55  51  86 E10       30.25R FOG
HARRISBURG     LGT RAIN  54  54 100 NE8       30.23S FOG
YORK           LGT RAIN  55  55 100 E15G23    30.21S FOG
$$

PAZ038>040-043-044-047-048-054-055-060>062-067>071-301100-
EASTERN PENNSYLVANIA

CITY           SKY/WX    TMP DP  RH WIND       PRES   REMARKS
SCRANTON       RAIN      51  47  86 E9G20     30.31S FOG
MOUNT POCONO   LGT RAIN  47  45  93 E20       30.32S
ALLENTOWN      HVY RAIN  54  48  82 NE14      30.29R FOG
QUAKERTOWN*    CLOUDY    54  52  94 NE7G18    30.27S
READING        HVY RAIN  53  50  89 NE9       30.23F FOG
LANCASTER      CLOUDY    55  55 100 NE7       30.23R
COATESVILLE    LGT RAIN  54  52  94 NE9G21    30.21F
POTTSTOWN      HVY RAIN  53  52  96 NE10G21   30.25S FOG
BLUE BELL      CLOUDY    52  52 100 NE6       30.24S
DOYLESTOWN     RAIN      54  53  97 NE12G18   30.25R
WILLOW GROVE   NOT AVBL
NORTH PHILA    LGT RAIN  57  55  93 NE14      30.25R FOG
PHILADELPHIA   LGT RAIN  57  55  93 NE17      30.22R FOG
$$




USA.gov is the U.S. government's official web portal to all federal, state and local government web resources and services.